Theta_e
307 307 308 308 310 309 309 309 310 310 310 310 310 310 311 312 315 318 320 321 324 322 318 322 324 322 326 332 333 334 342 345 343 344 342 345 345 340 339 342 340 339 340 339 334
307 307 308 308 310 310 310 310 310 310 310 310 310 311 311 312 318 324 323 323 321 317 317 322 324 323 331 334 334 337 338 341 338 338 345 343 343 342 341 342 342 339 335 336 336
307 307 308 309 310 311 311 311 311 310 310 310 311 311 312 314 328 325 325 323 320 320 320 325 331 331 335 334 337 340 339 338 339 337 343 342 341 339 339 340 340 338 329 326 326
308 308 308 310 311 311 311 310 310 310 310 310 310 311 313 321 325 322 322 320 320 320 321 326 331 333 335 339 336 338 341 343 345 343 343 343 339 338 338 339 335 330 325 325 325
308 308 309 311 311 312 311 311 311 311 311 311 311 312 316 325 326 322 321 321 320 320 321 322 333 333 335 336 335 338 338 344 344 341 340 339 340 339 338 333 330 327 323 324 324
308 309 310 311 311 312 312 312 312 312 312 312 312 313 327 325 325 323 321 321 321 322 323 323 331 332 335 338 337 335 335 339 340 341 338 340 339 338 337 332 329 325 323 322 324
308 309 310 311 311 313 313 313 313 313 312 312 313 315 324 322 323 320 321 324 324 324 323 330 335 334 335 339 338 339 335 337 332 342 342 339 343 340 336 332 330 325 322 323 323
309 309 311 311 312 313 314 314 314 313 313 313 314 317 322 326 325 325 325 325 326 326 326 332 333 333 333 335 336 338 340 337 332 341 342 342 347 338 334 333 332 326 322 323 324
309 309 311 312 313 314 315 315 316 316 315 317 322 325 326 326 325 325 325 326 325 325 327 334 335 334 333 335 339 337 334 339 340 334 338 340 345 339 336 336 334 330 324 324 324
310 310 311 313 313 315 315 317 319 319 325 323 324 322 324 324 325 326 325 324 323 323 323 329 321 331 334 334 341 339 336 339 339 338 336 342 342 341 338 339 337 335 330 326 329
310 311 312 313 314 315 317 319 323 325 324 325 321 320 322 327 325 324 325 324 323 319 320 320 329 332 330 337 336 337 337 339 338 332 337 338 339 338 336 337 337 335 332 331 330
311 311 312 314 315 316 316 317 325 326 322 324 326 323 323 325 321 320 324 322 322 321 321 326 330 333 333 335 336 338 338 339 337 335 338 338 338 337 337 337 335 333 332 331 328
312 313 313 314 316 317 317 320 324 324 321 324 326 326 325 322 321 321 321 320 320 320 327 327 330 334 335 335 336 333 335 336 338 338 336 335 335 338 336 334 333 331 331 331 328
313 314 313 314 318 318 318 324 322 324 321 325 326 325 324 322 323 322 323 320 320 320 329 331 330 334 334 337 335 337 335 336 338 338 341 335 339 339 338 332 328 327 326 326 329
314 314 314 313 314 316 323 320 322 324 331 330 324 325 322 322 323 322 323 320 322 330 329 332 331 332 333 335 332 333 334 332 336 338 337 337 332 335 333 336 334 329 328 326 325
315 314 313 314 320 324 320 322 325 325 332 327 325 323 324 323 324 325 327 326 327 331 332 331 331 333 333 333 331 330 330 329 328 332 335 332 332 335 336 336 335 331 328 327 326
314 312 311 312 319 321 318 322 325 327 329 334 324 324 323 323 326 327 333 332 332 332 331 333 335 336 333 330 329 322 322 325 327 337 342 334 331 331 331 332 331 331 329 326 322
312 311 311 312 320 317 319 326 336 335 337 335 336 332 323 331 336 336 334 333 331 330 330 332 334 336 332 332 333 328 323 324 331 335 336 331 335 330 330 328 327 326 325 323 325
311 313 314 318 318 319 322 335 335 337 337 338 334 335 334 333 334 337 333 335 330 329 332 333 334 331 330 329 327 329 330 325 330 330 333 335 335 331 331 329 329 327 325 324 324
312 322 326 319 317 322 325 332 337 338 336 335 336 335 334 332 333 338 335 330 332 327 328 331 333 330 330 328 326 328 328 328 326 331 337 335 333 332 326 330 329 329 326 324 324
320 325 322 317 320 323 326 332 335 335 334 335 335 334 331 329 336 336 331 328 327 326 324 326 327 331 329 328 327 325 326 329 328 329 333 338 333 325 320 321 327 326 326 323 322
327 326 329 320 320 325 330 336 333 334 331 331 330 330 329 329 335 331 330 328 325 326 323 325 328 332 331 327 326 325 326 327 330 332 329 328 328 324 317 315 316 321 324 321 317
329 332 327 324 324 328 332 335 335 333 329 328 329 328 329 329 334 331 330 326 330 329 332 330 330 335 334 327 325 324 320 324 323 322 328 327 329 317 317 317 316 317 316 316 315
326 335 321 320 326 331 334 335 336 332 328 327 327 328 329 331 330 333 331 331 331 335 336 328 326 330 332 329 326 324 319 319 321 323 325 326 324 319 317 318 317 314 315 317 316
328 330 322 322 327 331 332 333 335 332 328 326 327 329 330 330 333 336 334 332 332 334 330 324 326 325 324 326 323 320 320 319 320 319 320 320 322 320 319 316 317 316 316 317 317
325 334 328 332 332 333 331 333 335 329 328 329 329 328 327 332 333 334 333 335 337 335 334 327 328 329 332 324 322 323 324 326 326 323 323 323 323 319 321 319 318 319 319 318 316
340 338 328 333 334 335 335 334 335 332 327 330 328 326 329 330 328 328 327 328 333 336 334 331 332 334 335 332 327 326 326 327 327 326 325 327 325 323 324 322 321 320 319 321 320
Wind_Speed
15 14 14 13 12 12 11 10 10 12 13 14 15 16 18 19 18 5 4 2 1 4 5 4 4 5 9 4 6 5 4 4 9 8 4 8 5 5 6 7 5 4 6 9 21
16 15 14 14 13 12 12 10 11 13 14 14 15 16 17 20 12 6 5 2 4 6 4 6 3 5 5 5 3 5 2 3 3 5 5 6 8 7 5 9 6 10 11 11 20
17 16 14 13 12 12 12 11 12 14 15 15 15 16 18 15 3 5 7 8 6 5 2 4 8 11 7 4 4 3 2 6 3 6 15 8 12 6 11 5 5 10 7 12 23
16 16 14 12 13 13 13 13 13 14 15 14 14 15 18 3 1 2 11 10 7 4 3 10 6 7 6 6 7 7 4 9 18 12 6 2 7 5 5 3 9 8 10 10 14
16 15 13 13 13 14 13 14 13 13 13 13 13 15 5 2 7 8 12 9 6 3 4 8 12 6 8 3 5 4 5 11 24 18 11 14 11 9 11 12 14 11 9 8 11
16 14 13 13 14 13 13 14 13 12 13 13 12 13 2 2 1 12 12 10 7 9 3 9 8 6 7 3 3 4 6 6 5 9 8 14 11 6 10 12 15 11 6 4 10
16 15 13 13 14 14 14 15 13 13 13 13 11 8 1 8 4 9 10 7 12 12 5 17 24 7 8 8 4 4 3 4 5 2 4 18 7 7 13 11 10 14 9 8 11
16 15 13 14 14 14 15 16 15 14 14 12 10 3 5 6 9 9 10 10 12 13 6 14 14 9 4 5 6 4 2 2 4 5 5 1 6 14 14 15 13 16 14 10 11
15 14 13 14 14 15 16 18 16 13 14 8 2 3 8 5 10 11 10 8 13 10 16 19 9 5 3 6 4 3 4 2 6 5 5 5 11 12 11 11 12 9 11 12 9
15 13 12 13 14 15 17 18 14 10 3 3 0 2 4 5 5 8 10 11 3 3 8 3 5 3 3 4 4 5 4 4 6 5 8 15 10 11 7 7 12 10 12 9 8
14 13 12 13 14 16 18 6 5 2 2 6 4 4 2 5 6 6 5 1 4 8 5 4 7 4 7 7 6 6 4 6 7 2 10 7 7 5 1 7 13 5 14 7 2
13 12 11 12 13 15 16 1 6 3 7 10 12 7 17 13 6 7 7 3 3 3 1 5 4 1 9 10 8 5 3 1 11 14 12 8 6 6 11 8 16 16 14 10 6
13 11 11 11 13 13 8 11 22 28 1 10 5 5 6 9 10 9 10 6 6 1 1 5 2 4 6 4 6 5 3 2 4 13 19 7 9 4 8 10 8 11 11 7 7
12 11 11 11 8 10 10 18 31 12 4 6 3 5 5 5 5 11 19 8 3 10 6 1 3 4 4 4 2 3 4 5 18 7 4 2 4 5 5 6 7 7 4 5 8
12 11 10 9 11 6 12 31 21 4 1 6 5 6 6 8 3 5 19 5 6 4 6 3 3 4 2 4 4 6 3 6 18 11 5 7 5 3 4 3 9 10 6 5 6
11 9 7 6 8 8 23 28 3 5 4 4 5 7 3 3 4 1 3 4 2 5 6 4 1 3 2 5 3 3 3 13 6 5 5 6 2 3 2 6 4 6 7 6 9
10 8 6 5 5 14 25 7 5 3 5 5 2 3 6 5 4 6 6 8 4 5 5 3 4 2 3 7 6 11 6 3 4 5 2 7 4 4 5 3 5 7 8 8 5
9 8 8 11 12 17 12 5 3 4 4 5 9 8 3 7 8 11 10 9 11 5 3 3 7 6 6 1 2 4 3 5 1 4 2 6 3 5 2 6 6 6 3 8 7
8 5 6 9 9 4 5 4 5 4 4 12 5 9 5 6 7 6 11 6 6 6 4 3 5 5 13 16 5 6 4 1 7 4 4 2 3 7 5 3 4 4 7 8 4
5 5 5 9 3 3 4 4 4 3 9 12 1 3 5 6 3 5 4 5 3 9 2 2 4 9 5 7 9 5 4 5 4 4 3 2 2 3 6 4 5 6 6 6 8
4 3 0 7 4 4 2 3 5 15 12 4 0 3 3 4 5 4 4 3 6 6 8 3 4 6 9 6 5 6 5 5 5 4 4 4 2 5 3 0 4 2 6 9 7
3 3 6 13 3 0 1 3 5 6 4 5 7 7 4 7 6 5 5 5 6 4 3 3 5 5 11 5 5 2 4 4 4 1 3 4 1 3 0 5 6 2 6 5 9
1 2 3 10 2 3 2 5 3 5 5 6 7 7 7 5 6 9 4 2 3 5 2 3 2 4 5 6 8 7 10 5 5 3 3 4 0 4 4 4 3 2 4 5 5
2 3 4 4 2 6 2 4 7 3 7 9 3 10 8 10 6 4 5 3 3 5 5 9 5 5 4 5 2 6 12 13 7 6 4 3 3 7 6 2 2 6 4 3 3
2 3 4 2 3 5 3 2 8 1 3 6 8 9 5 6 8 6 6 3 7 9 6 6 5 8 5 4 10 7 11 14 12 5 6 5 7 6 9 4 3 2 5 6 6
2 2 4 1 5 9 6 7 6 9 6 5 9 7 9 5 5 3 5 3 1 7 5 5 2 3 5 10 14 9 11 12 11 8 7 5 7 6 8 6 13 13 12 12 8
3 2 4 5 3 5 3 3 3 3 11 5 9 8 10 8 7 5 6 4 4 5 2 4 4 3 1 2 3 9 8 11 10 11 3 6 3 5 14 11 7 9 9 11 11
Wind_Direction
340 336 333 333 328 323 321 323 329 345 339 342 340 337 338 333 333 319 240 251 185 184 185 172 237 285 3 71 76 123 68 182 176 169 211 151 109 55 58 98 60 26 73 92 117
339 335 334 332 328 324 323 329 345 349 343 341 336 340 336 332 332 256 188 200 198 148 191 45 295 89 54 37 20 72 52 256 152 164 108 75 103 117 101 96 79 94 67 91 133
338 335 334 334 326 328 328 335 351 347 340 337 335 337 334 332 336 251 194 197 167 145 139 52 101 98 62 28 40 40 335 297 83 89 96 91 66 102 115 56 130 135 115 103 112
339 334 334 333 327 328 329 337 348 342 335 330 336 337 336 357 77 253 152 168 167 161 104 76 359 62 54 130 168 131 345 49 50 69 102 88 113 90 73 109 116 111 100 103 101
341 335 333 332 323 326 334 334 337 334 328 330 337 341 349 353 249 183 168 170 180 198 111 123 92 115 149 194 52 110 125 93 128 156 131 121 118 104 91 105 105 95 92 100 109
341 334 332 328 321 326 330 326 327 331 326 329 338 342 17 319 191 178 178 184 198 205 159 146 171 178 110 83 36 69 82 95 118 163 128 110 121 81 128 132 118 114 113 125 139
340 333 330 326 324 327 327 321 324 328 320 325 333 341 35 232 158 173 187 211 218 206 158 155 154 144 128 127 121 93 43 234 339 192 107 115 86 99 145 143 139 136 151 177 179
341 331 329 325 324 322 323 318 319 316 313 322 322 320 255 316 192 182 207 263 276 257 235 184 131 81 35 124 43 77 76 291 203 183 107 10 90 146 160 165 161 171 164 182 197
339 328 327 324 324 325 321 316 311 306 303 313 354 54 291 347 177 229 218 233 308 303 192 146 82 94 54 100 51 53 267 211 316 84 114 71 135 173 181 175 175 164 193 177 198
337 327 328 325 322 325 322 316 302 300 21 80 185 11 282 247 220 246 244 253 268 342 106 71 61 105 40 59 175 211 235 238 225 86 73 87 128 173 197 191 190 178 214 179 177
335 329 327 321 321 326 332 339 9 14 168 195 196 233 264 266 254 260 259 350 335 56 25 8 78 86 175 164 264 185 213 221 75 11 59 110 167 208 302 264 222 200 100 166 223
334 327 323 316 320 320 317 235 228 96 308 222 238 235 254 271 251 253 223 143 60 277 18 15 160 172 97 143 150 198 184 327 87 110 85 113 99 32 45 46 97 106 164 174 171
331 326 315 318 314 313 312 270 323 307 327 299 208 199 220 165 206 214 154 184 203 257 262 170 37 158 144 137 131 224 170 146 143 95 130 93 56 31 78 97 120 156 159 175 169
327 322 322 319 317 328 286 337 332 333 53 279 226 252 222 138 276 207 202 158 141 208 164 86 276 106 62 64 79 330 250 253 130 117 172 198 142 29 109 122 151 188 197 217 194
325 322 324 312 312 303 322 329 342 113 21 255 239 200 167 156 243 260 188 66 161 199 102 250 13 355 346 176 205 238 221 93 109 109 103 7 82 212 183 190 202 231 227 238 227
324 318 319 313 290 299 332 340 36 46 267 293 159 175 162 200 252 357 99 69 147 109 52 181 344 53 261 250 183 260 42 101 95 98 56 304 115 308 5 293 201 218 239 240 220
324 313 293 264 258 311 333 3 45 123 300 303 218 190 189 242 221 107 65 43 66 53 14 343 343 301 5 3 24 49 52 2 2 36 86 325 42 250 304 328 267 219 223 221 170
331 310 287 264 275 301 343 51 84 267 268 261 285 244 203 108 66 70 74 59 29 68 80 65 8 4 337 16 238 47 140 148 218 145 150 351 14 283 278 320 26 73 153 140 176
337 317 292 249 264 339 57 46 218 222 266 338 306 54 9 50 107 91 66 44 39 19 90 52 49 36 66 47 41 327 19 50 102 57 87 311 345 303 286 270 117 140 150 184 183
346 335 262 209 239 65 69 240 246 254 341 347 48 34 49 356 89 86 72 332 28 36 56 310 128 5 67 33 10 57 286 23 15 113 116 144 320 281 330 301 197 214 221 203 209
3 26 356 181 180 56 164 245 313 318 308 178 215 75 109 80 67 70 49 340 34 344 50 33 83 345 49 22 17 353 16 51 108 96 136 152 287 236 125 81 110 238 207 207 208
23 46 35 168 53 343 70 308 315 329 0 82 53 44 57 67 52 71 63 56 331 319 52 13 99 83 106 43 20 353 346 109 110 119 92 124 276 22 220 124 116 175 213 211 203
61 278 60 175 149 317 244 330 349 320 41 39 48 42 27 37 79 117 104 201 49 65 36 353 63 102 299 1 349 35 32 41 89 77 12 101 110 2 79 59 357 356 315 201 186
77 28 325 39 107 126 255 39 341 318 52 70 79 58 48 24 37 118 135 52 33 79 73 77 27 121 138 184 218 50 51 53 88 78 75 109 119 358 347 140 31 43 16 97 168
59 262 202 218 281 120 117 79 329 349 61 56 18 79 107 43 38 34 43 73 36 7 52 96 85 109 121 101 69 82 70 62 81 144 90 79 79 341 327 42 19 51 50 45 61
85 56 343 44 354 74 31 27 343 53 41 18 100 80 86 91 120 76 111 67 109 23 65 20 149 70 52 80 75 61 80 61 51 51 71 86 68 345 352 6 39 29 19 11 344
304 327 108 304 50 81 145 210 314 327 7 71 123 96 97 155 130 136 113 130 112 129 109 93 130 87 266 15 62 32 357 90 76 39 18 43 318 3 16 1 32 28 15 1 360